Date String (YYYY-MM-DD hh:mm:ss) UTC,Instrument flags,Ambient pressure (hPa),Sample flow (lpm),Bypass flow (lpm),Sample temperature (°C),Ambient temperature (°C),ASC tube jacket temperature (°C),LED temperature (°C),Box temperature (°C),Sample RH (%),Span deviation,Mass concentration (μg/m³),Mass concentration (μg/m³),Mass concentration (μg/m³)
DateTimeUTC,F1_M11,P_M11,Q1_M11,Q2_M11,T1_M11,T2_M11,T3_M11,T4_M11,T5_M11,U1_M11,ZSPAN_M11,X0_M11,X2_M11,X1_M11
2022-08-20 13:00:00,,0830.7,4.99,0.00,30.4,29.1,00.0,39.2,32.2,25.3,0000.0,0012.92,0006.71,0005.65
2022-08-20 13:01:00,,0830.7,5.00,0.00,30.4,29.2,00.0,39.2,32.2,24.9,0000.0,0012.51,0006.62,0005.62
2022-08-20 13:02:00,,0830.7,5.00,0.00,30.4,29.2,00.0,39.2,32.3,25.0,0000.0,0013.37,0006.58,0005.60
2022-08-20 13:03:00,,0830.7,5.00,0.00,30.4,29.2,00.0,39.2,32.2,24.8,0000.0,0014.18,0006.52,0005.59
2022-08-20 13:04:00,,0830.7,5.01,0.00,30.4,29.3,00.0,39.2,32.3,25.1,0000.0,0014.57,0006.54,0005.58
2022-08-20 13:05:00,,0830.7,5.01,0.00,30.4,29.3,00.0,39.2,32.3,25.2,0000.0,0014.57,0006.55,0005.58
2022-08-20 13:06:00,,0830.8,5.00,0.00,30.4,29.3,00.0,39.2,32.3,25.1,0000.0,0014.45,0006.51,0005.56
2022-08-20 13:07:00,,0830.8,4.99,0.00,30.5,29.3,00.0,39.2,32.3,24.9,0000.0,0015.17,0006.52,0005.54
2022-08-20 13:08:00,,0830.7,5.00,0.00,30.5,29.4,00.0,39.2,32.3,24.9,0000.0,0015.28,0006.51,0005.54
2022-08-20 13:09:00,,0830.8,5.01,0.00,30.5,29.4,00.0,39.3,32.3,24.6,0000.0,0015.21,0006.48,0005.53
2022-08-20 13:10:00,,0830.8,5.00,0.00,30.5,29.4,00.0,39.3,32.4,24.7,0000.0,0015.15,0006.45,0005.52
2022-08-20 13:11:00,,0830.8,4.99,0.00,30.5,29.4,00.0,39.3,32.4,24.8,0000.0,0014.86,0006.40,0005.50
2022-08-20 13:12:00,,0830.9,5.01,0.00,30.5,29.4,00.0,39.3,32.4,25.1,0000.0,0015.21,0006.40,0005.48
2022-08-20 13:13:00,,0830.9,5.00,0.00,30.5,29.5,00.0,39.3,32.4,25.1,0000.0,0014.89,0006.44,0005.48
2022-08-20 13:14:00,,0830.8,5.00,0.00,30.5,29.5,00.0,39.3,32.4,24.7,0000.0,0014.31,0006.46,0005.46
2022-08-20 13:15:00,,0830.9,4.99,0.00,30.6,29.5,00.0,39.3,32.4,24.1,0000.0,0014.03,0006.46,0005.45
2022-08-20 13:16:00,,0830.9,5.00,0.00,30.6,29.5,00.0,39.3,32.4,24.1,0000.0,0014.03,0006.49,0005.45
2022-08-20 13:17:00,,0830.8,5.01,0.00,30.6,29.5,00.0,39.3,32.4,24.0,0000.0,0014.09,0006.50,0005.44
2022-08-20 13:18:00,,0830.9,4.99,0.00,30.6,29.5,00.0,39.3,32.5,23.9,0000.0,0013.37,0006.47,0005.43
2022-08-20 13:19:00,,0830.9,5.01,0.00,30.6,29.6,00.0,39.4,32.5,23.9,0000.0,0013.13,0006.44,0005.41
2022-08-20 13:20:00,,0830.9,5.01,0.00,30.6,29.6,00.0,39.4,32.5,24.3,0000.0,0013.61,0006.45,0005.41
2022-08-20 13:21:00,,0830.9,5.01,0.00,30.6,29.6,00.0,39.4,32.5,24.5,0000.0,0013.74,0006.46,0005.40
2022-08-20 13:22:00,,0830.9,5.00,0.00,30.6,29.6,00.0,39.4,32.5,24.2,0000.0,0013.55,0006.48,0005.40
2022-08-20 13:23:00,,0830.9,5.00,0.00,30.7,29.6,00.0,39.4,32.5,24.3,0000.0,0013.44,0006.47,0005.39
2022-08-20 13:24:00,,0830.9,5.00,0.00,30.7,29.6,00.0,39.4,32.6,24.0,0000.0,0013.11,0006.42,0005.39
2022-08-20 13:25:00,,0830.9,5.00,0.00,30.7,29.7,00.0,39.4,32.6,24.2,0000.0,0012.96,0006.41,0005.37
2022-08-20 13:26:00,,0830.9,5.00,0.00,30.7,29.7,00.0,39.4,32.6,24.1,0000.0,0013.24,0006.35,0005.35
2022-08-20 13:27:00,,0830.9,4.99,0.00,30.7,29.7,00.0,39.5,32.6,24.1,0000.0,0013.04,0006.24,0005.32
2022-08-20 13:28:00,,0830.9,5.00,0.00,30.7,29.7,00.0,39.5,32.6,23.6,0000.0,0013.18,0006.18,0005.30
2022-08-20 13:29:00,,0830.9,5.00,0.00,30.7,29.7,00.0,39.5,32.6,23.6,0000.0,0013.80,0006.18,0005.31
2022-08-20 13:30:00,,0830.9,4.99,0.00,30.8,29.7,00.0,39.5,32.6,24.1,0000.0,0013.47,0006.17,0005.31
2022-08-20 13:31:00,,0830.9,5.00,0.00,30.8,29.7,00.0,39.5,32.6,24.2,0000.0,0012.99,0006.15,0005.31
2022-08-20 13:32:00,,0830.9,5.01,0.00,30.8,29.7,00.0,39.5,32.6,23.8,0000.0,0013.38,0006.13,0005.31
2022-08-20 13:33:00,,0830.9,5.00,0.00,30.8,29.8,00.0,39.5,32.6,23.7,0000.0,0013.38,0006.14,0005.32
2022-08-20 13:34:00,,0830.9,4.99,0.00,30.8,29.8,00.0,39.5,32.6,23.9,0000.0,0013.32,0006.14,0005.32
2022-08-20 13:35:00,,0830.9,5.00,0.00,30.8,29.8,00.0,39.5,32.7,23.4,0000.0,0013.72,0006.13,0005.32
2022-08-20 13:36:00,,0830.9,5.00,0.00,30.8,29.8,00.0,39.6,32.7,23.4,0000.0,0014.01,0006.08,0005.31
2022-08-20 13:37:00,,0830.9,5.00,0.00,30.8,29.8,00.0,39.6,32.7,23.0,0000.0,0013.43,0006.08,0005.32
2022-08-20 13:38:00,,0830.9,5.00,0.00,30.8,29.8,00.0,39.6,32.7,23.5,0000.0,0014.15,0006.17,0005.33
2022-08-20 13:39:00,,0830.9,5.00,0.00,30.8,29.8,00.0,39.6,32.7,23.1,0000.0,0014.63,0006.22,0005.33
2022-08-20 13:40:00,,0830.9,5.00,0.00,30.9,29.8,00.0,39.6,32.7,23.0,0000.0,0014.41,0006.23,0005.31
2022-08-20 13:41:00,,0830.9,4.99,0.00,30.9,29.9,00.0,39.6,32.7,22.8,0000.0,0014.47,0006.26,0005.30
2022-08-20 13:42:00,,0830.9,5.01,0.00,30.9,29.9,00.0,39.6,32.7,23.1,0000.0,0014.69,0006.28,0005.29
2022-08-20 13:43:00,,0830.9,5.00,0.00,30.9,29.9,00.0,39.6,32.8,23.3,0000.0,0014.35,0006.28,0005.28
2022-08-20 13:44:00,,0830.9,5.02,0.00,30.9,29.9,00.0,39.6,32.8,22.8,0000.0,0015.52,0006.27,0005.27
2022-08-20 13:45:00,,0830.9,5.00,0.00,30.9,29.9,00.0,39.6,32.8,22.1,0000.0,0016.22,0006.29,0005.25
2022-08-20 13:46:00,,0830.9,5.00,0.00,30.9,29.9,00.0,39.7,32.8,22.7,0000.0,0016.54,0006.25,0005.23
2022-08-20 13:47:00,,0830.9,5.00,0.00,30.9,29.9,00.0,39.7,32.8,23.5,0000.0,0016.66,0006.31,0005.25
2022-08-20 13:48:00,,0830.9,5.00,0.00,30.9,29.6,00.0,39.7,32.7,23.4,0000.0,0017.35,0006.36,0005.27
2022-08-20 13:49:00,,0830.9,5.00,0.00,30.9,28.7,00.0,39.6,32.5,23.3,0000.0,0017.60,0006.40,0005.28
2022-08-20 13:50:00,,0830.9,5.00,0.00,30.8,28.2,00.0,39.5,32.3,23.2,0000.0,0017.18,0006.44,0005.32
2022-08-20 13:51:00,,0830.9,5.01,0.00,30.7,28.1,00.0,39.5,32.2,23.3,0000.0,0016.64,0006.47,0005.37
2022-08-20 13:52:00,,0830.9,4.99,0.00,30.6,28.1,00.0,39.5,32.1,23.8,0000.0,0016.80,0006.55,0005.40
2022-08-20 13:53:00,,0830.9,5.00,0.00,30.5,28.2,00.0,39.4,32.1,22.8,0000.0,0016.72,0006.60,0005.43
2022-08-20 13:54:00,,0830.9,5.00,0.00,30.5,28.4,00.0,39.4,32.2,23.0,0000.0,0016.84,0006.65,0005.45
2022-08-20 13:55:00,,0830.8,5.00,0.00,30.5,28.5,00.0,39.4,32.1,22.7,0000.0,0015.80,0006.71,0005.47
2022-08-20 13:56:00,,0830.9,5.00,0.00,30.4,28.6,00.0,39.4,32.2,23.4,0000.0,0015.65,0006.80,0005.49
2022-08-20 13:57:00,,0830.9,5.00,0.00,30.4,28.7,00.0,39.3,32.2,23.8,0000.0,0015.69,0006.95,0005.54
2022-08-20 13:58:00,,0830.9,4.99,0.00,30.4,28.8,00.0,39.3,32.2,24.1,0000.0,0015.18,0006.98,0005.56
2022-08-20 13:59:00,,0830.9,5.00,0.00,30.4,28.9,00.0,39.3,32.2,25.0,0000.0,0015.06,0007.03,0005.59
